Regional Weather Roundup
Issued by NWS

Home | Current Version | Previous Version | Graphics & Text | Print | Product List | Glossary On
Versions: 1 2 3 4 5 6 7 8 9 10 11 12 13 14 15 16 17 18 19 20 21 22 23 24 25 26 27
000
ASUS45 KPSR 221010
RWRAZ

ARIZONA HOURLY REGIONAL WEATHER ROUNDUP
NATIONAL WEATHER SERVICE PHOENIX AZ
300 AM MST WED MAR 22 2017

NOTE: FAIR INDICATES FEW OR NO CLOUDS BELOW 12,000 FEET WITH NO
SIGNIFICANT WEATHER AND/OR OBSTRUCTIONS TO VISIBILITY.

AZZ001>003-036-221100-
NORTHWEST ARIZONA

CITY           SKY/WX    TMP DP  RH WIND       PRES   REMARKS
BULLHEAD CITY  CLOUDY    73  46  38 S10       29.84S
KINGMAN        CLOUDY    59  19  21 SE10      29.95F
$$

AZZ004>008-015-016-018-221100-
NORTH CENTRAL ARIZONA

CITY           SKY/WX    TMP DP  RH WIND       PRES   REMARKS
GRAND CANYON   CLOUDY    46  32  58 S6        30.09F
WILLIAMS       CLOUDY    52  28  40 S14G23    30.09F
PRESCOTT       CLOUDY    48  35  60 S6        30.05F
FLAGSTAFF      PTCLDY    45  30  55 W6        30.11F
PAYSON         CLEAR     54  30  40 E5        30.12F
PAGE           MOCLDY    61  22  22 CALM      29.96F
$$

AZZ009>014-017-221100-
NORTHEAST ARIZONA

CITY           SKY/WX    TMP DP  RH WIND       PRES   REMARKS
WINSLOW        PTCLDY    44  29  55 SE5       30.06F
SAINT JOHNS    CLEAR     44  26  49 SW6       30.11F
SHOW LOW       CLEAR     46  23  39 S7        30.14F
$$

AZZ023-221100-
GREATER PHOENIX AREA

CITY           SKY/WX    TMP DP  RH WIND       PRES   REMARKS
PHOENIX        PTCLDY    69  42  37 E6        29.90F
BUCKEYE        PTCLDY    63  41  45 E3        29.91F
LUKE AFB       CLEAR     68  42  38 S3        29.90F
DEER VALLEY    CLEAR     59  43  55 E6        29.92F
SCOTTSDALE     CLEAR     65  42  43 CALM      29.94F
MESA-GATEWAY   CLEAR     61  36  39 E7        29.94F
$$

AZZ027-028-221100-
SOUTHWEST MARICOPA COUNTY AND PINAL COUNTY

CITY           SKY/WX    TMP DP  RH WIND       PRES   REMARKS
CASA GRANDE    NOT AVBL
GILA BEND      FAIR      65  39  38 S5        29.91F
$$

AZZ503-504-507>509-221100-
SOUTHEAST ARIZONA

CITY           SKY/WX    TMP DP  RH WIND       PRES   REMARKS
TUCSON         CLEAR     63  34  33 E3        30.02F
DAVIS-MONTHAN  CLEAR     60  33  37 SE5       30.01F
NOGALES        CLEAR     52  35  52 NE5       30.06F
SIERRA VISTA   CLEAR     57  28  33 SE6       30.11F
DOUGLAS        CLEAR     54  25  32 CALM      30.08F
SAFFORD        CLEAR     56  24  29 NE5       30.01S
$$

AZZ020-021-025-026-031-221100-
SOUTHWEST ARIZONA

CITY           SKY/WX    TMP DP  RH WIND       PRES   REMARKS
YUMA           MOCLDY    69  53  56 NW6       29.91S
$$

CAZ031-033-041-043-047-048-061-221100-
SOUTHERN CALIFORNIA

CITY           SKY/WX    TMP DP  RH WIND       PRES   REMARKS
DOWNTOWN L.A.  CLOUDY    59  58  96 CALM      30.02F FOG
L.A. AIRPORT     N/A     58  58 100 E3        30.03F FOG
SAN DIEGO      CLOUDY    60  57  89 SE7       30.04F FOG
BURBANK        CLOUDY    56  55  97 E3        30.02F FOG
ONTARIO        CLOUDY    56  56 100 W7        30.03F FOG
RIVERSIDE      LGT RAIN  56  56 100 CALM      30.03F FOG
PALM SPRINGS   CLEAR     67  54  63 SW3       29.93S
EL CENTRO NAS  CLOUDY    70  52  52 W17       29.92S
IMPERIAL       CLOUDY    71  55  56 W14       29.90R
BLYTHE         MOCLDY    69  55  60 S12       29.87F
NEEDLES        CLOUDY    74  47  38 W7        29.85F
$$

NVZ020-UTZ003-221100-
SOUTHERN NEVADA-UTAH

CITY           SKY/WX    TMP DP  RH WIND       PRES   REMARKS
LAS VEGAS      CLOUDY    66  45  46 S8        29.87F
SALT LAKE CITY CLOUDY    54  43  66 N12       29.90F
$$

NMZ009-TXZ055-221100-
NEW MEXICO-WEST TEXAS

CITY           SKY/WX    TMP DP  RH WIND       PRES   REMARKS
ALBUQUERQUE    CLOUDY    55  26  32 N8        30.10F
EL PASO        CLEAR     59  26  28 SE6       30.04F
$$


........................KEY........................
SKY/WX - SKY CONDITION/WEATHER
TMP    - TEMPERATURE IN FAHRENHEIT
DP     - DEW POINT IN FAHRENHEIT
RH     - RELATIVE HUMIDITY IN PERCENT
WIND   - DIRECTION AND SPEED IN MILES PER HOUR (MPH)
VRB    - VARIABLE WIND DIRECTION
PRES   - MEAN SEA LEVEL PRESSURE IN INCHES OF MERCURY
         F - FALLING PRESSURE   R - RISING PRESSURE
         S - STEADY PRESSURE
VSB    - VISIBILITY IN MILES
HX     - HEAT INDEX IN FAHRENHEIT
WCI    - WIND CHILL INDEX IN FAHRENHEIT
TC     - TEMPERATURE IN CELSIUS WHICH IS ALSO KNOWN AS
         TEMPERATURE IN CENTIGRADE
AFB    - AIR FORCE BASE
         LUKE AFB IS LUKE AIR FORCE BASE
         DAVIS-MONTHAN IS DAVIS-MONTHAN AIR FORCE BASE
NAS    - NAVAL AIR STATION
         EL CENTRO NAS IS EL CENTRO NAVAL AIR STATION
N/A    - NOT AVAILABLE





USA.gov is the U.S. government's official web portal to all federal, state and local government web resources and services.